Regional Weather Roundup
Issued by NWS

Home | Current Version | Previous Version | Text Only | Print | Product List | Glossary Off
Versions: 1 2 3 4 5 6 7 8 9 10 11 12 13 14 15 16 17 18 19 20 21 22 23 24 25 26 27 28 29 30 31 32 33 34 35 36 37 38 39 40 41 42 43 44 45 46 47 48 49 50

996
ASUS43 KDTX 251910
RWRMI
MICHIGAN HOURLY REGIONAL WEATHER ROUNDUP
NATIONAL WEATHER SERVICE DETROIT/PONTIAC MI
300 PM EDT TUE APR 25 2017

NOTE: "FAIR" INDICATES FEW OR NO CLOUDS BELOW 12,000 FEET WITH NO
SIGNIFICANT WEATHER AND/OR OBSTRUCTION TO VISIBILITY.

MIZ047>049-052>055-059>063-066>070-074>076-081>083-252000-
SOUTHEAST LOWER MICHIGAN

CITY           SKY/WX    TMP DP  RH WIND       PRES   REMARKS
ADRIAN         SUNNY     69  55  60 SE7G16    29.76F
ALMA           CLOUDY    68  54  60 S10G17    29.75F
ANN ARBOR      SUNNY     68  54  60 E10       29.77F
BAD AXE        CLOUDY    60  52  76 S13       29.82S
CARO           CLOUDY    65  53  66 S12G17    29.78F
DETROIT CITY   SUNNY     65  55  70 E9        29.80F
DETROIT        MOSUNNY   68  53  58 E10       29.80F
FLINT          PTSUNNY   68  54  60 S13       29.76F
GROSSE ILE     SUNNY     64  53  68 S6        29.78F
HILLSDALE      SUNNY     68  54  60 S13G18    29.75F
HOWELL         SUNNY     68  51  53 SE12G18   29.76F

CITY           SKY/WX    TMP DP  RH WIND       PRES   REMARKS
JACKSON        MOSUNNY   69  53  56 S13       29.76F
LAMBERTVILLE   SUNNY     66  55  68 E9        29.78S
LANSING        MOSUNNY   71  53  52 SE13      29.75F
LAPEER         FAIR      65  51  60 SE9G20    29.80S
MASON          MOSUNNY   69  55  61 SE10G17   29.76F
MONROE         SUNNY     64  52  65 SE8       29.79S
MT. CLEMENS    PTSUNNY   61  54  77 E13       29.80F
PONTIAC        PTSUNNY   66  52  60 SE10      29.78S
PORT HOPE        N/A     50  48  93 SE14      29.81F
PORT HURON     SUNNY     64  50  59 SE10G17   29.81F
TRI CITIES     CLOUDY    69  53  56 S13G18    29.77F
MIDLAND        CLOUDY    67  50  54 SE5       29.76F
TROY           SUNNY     67  48  51 E10G16    29.81F
SAGINAW HB     SUNNY     70  50  49 SE9       29.76F
$$
MIZ043>046-050>051-056>058-064>065-071>073-077>080-252000-
SOUTHWEST LOWER MICHIGAN

CITY           SKY/WX    TMP DP  RH WIND       PRES   REMARKS
BATTLE CREEK   CLOUDY    69  55  60 S14       29.75S
BENTON HARBOR  MOSUNNY   74  54  49 SE9G18    29.69F
BIG RAPIDS     PTSUNNY   68  51  53 SE14      29.73F
COLDWATER      MOSUNNY   70  55  60 SE12G17   29.74F
FREMONT        CLOUDY    71  49  45 S9        29.71F
HOLLAND        PTSUNNY   75  55  49 S9        29.70F
GRAND RAPIDS   CLOUDY    71  55  56 VRB5      29.72F
IONIA          FAIR      69  53  56 SE9       29.73F
KALAMAZOO      MOSUNNY   71  53  52 S13       29.74F
LUDINGTON      MOSUNNY   68  54  60 SW12      29.68F
MARSHALL       PTSUNNY   70  54  57 S10G16    29.74F
MOUNT PLEASANT MOSUNNY   68  51  53 SE9       29.75F
MUSKEGON       PTSUNNY   74  54  49 SW7       29.70F
SOUTH HAVEN    PTSUNNY   73  53  50 SE8       29.69F
$$
MIZ016>042-252000-
NORTHERN LOWER MICHIGAN

CITY           SKY/WX    TMP DP  RH WIND       PRES   REMARKS
ALPENA         PTSUNNY   56  47  71 SE16      29.80F
BEAVER ISLAND  SUNNY     57  42  56 E8        29.75S
BELLAIRE       SUNNY     72  45  37 S6        29.72S
CADILLAC       MOSUNNY   68  51  52 S9        29.73F
CHARLEVOIX     SUNNY     58  46  64 N6        29.75F
FRANKFORT      SUNNY     64  50  58 SW7       29.70F
GAYLORD        MOSUNNY   68  47  46 S8        29.75F
GRAYLING       SUNNY     68  49  50 SE6G13    29.77S
HARBOR SPRINGS PTSUNNY   70  49  46 S5        29.72F
HOUGHTON LAKE  PTSUNNY   67  49  52 SE12      29.76F
MANISTEE       PTSUNNY   73  52  47 S12G18    29.67F
OSCODA         CLOUDY    55  46  70 E9        29.81F
PELLSTON       SUNNY     71  47  42 SE13      29.73F
ROGERS CITY    PTSUNNY   62  47  59 SE12      29.79S
TRAVERSE CITY  MOSUNNY   74  48  39 SE12G21   29.68F
$$
MIZ007>008-015-252000-
EASTERN UPPER MICHIGAN

CITY           SKY/WX    TMP DP  RH WIND       PRES   REMARKS
KINROSS        CLOUDY    52  41  66 E16       29.81R
MACKINAC ISLAN PTSUNNY   43  39  85 E16G26    29.78S
NEWBERRY       CLOUDY    64  45  50 SE6       29.75F
S. S. MARIE    CLOUDY    53  42  66 E12G18    29.82R
MUNISING         N/A     65  46  50 S14G24    29.68F
$$
MIZ004>006-011>014-085-252000-
CENTRAL UPPER MICHIGAN

CITY           SKY/WX    TMP DP  RH WIND       PRES   REMARKS
MANISTIQUE     CLOUDY    54  42  64 E14       29.74F
ESCANABA       SUNNY     57  46  66 E13       29.70F
MENOMINEE      CLOUDY    61  50  67 S13G21    29.66F
SAWYER-GWINN   PTSUNNY   64  46  52 S14G20    29.67F
$$
MIZ001>003-009>011-084-252000-
WESTERN UPPER MICHIGAN

CITY           SKY/WX    TMP DP  RH WIND       PRES   REMARKS
IRON MOUNTAIN  MOSUNNY   73  39  29 SE12G23   29.61F
HOUGHTON       CLOUDY    63  40  42 E8        29.61F
COPPER HARBOR    N/A     44  39  82 E7        29.65S
IRONWOOD       PTSUNNY   64  38  38 N13G20    29.58S
$$

ABBREVIATIONS USED IN REMARKS
   TC - TEMPERATURE IN CELSIUS
  WCI - WIND CHILL INDEX
   HX - HEAT INDEX
  VSB - VISIBILITY





USA.gov is the U.S. government's official web portal to all federal, state and local government web resources and services.